N671AV SAWH-SAWC

Flight info

Callsign N671AV
Flight time 1h 13m
Altitude 38000
Route GRA2B GRA UW42 GAL UW52 DEVIS DEVIS2Q
Aircraft B736/M-SDE2E3FGHIRWXY/LB1

Departure

Time 2026-04-16 20:17
Airport Ushuaia - Malvinas Argentinas International Airport (SAWH)

Arrival

Time 2026-04-16 21:31
Airport El Calafate - Commander Armando Tola International Airport (SAWC)
Time Latitude Longitude Altitude Speed Heading
2026-04-16 19:54 -54.84098 -68.30612 107 ft 0 kts 39°
2026-04-16 20:07 -54.84096 -68.30599 107 ft 2 kts 76°
2026-04-16 20:08 -54.84109 -68.30580 105 ft 3 kts 173°
2026-04-16 20:08 -54.84123 -68.30602 107 ft 3 kts 235°
2026-04-16 20:08 -54.84134 -68.30630 106 ft 4 kts 234°
2026-04-16 20:08 -54.84150 -68.30656 107 ft 3 kts 207°
2026-04-16 20:09 -54.84180 -68.30667 108 ft 5 kts 186°
2026-04-16 20:09 -54.84208 -68.30705 108 ft 5 kts 246°
2026-04-16 20:09 -54.84215 -68.30768 108 ft 4 kts 263°
2026-04-16 20:09 -54.84215 -68.30769 108 ft 0 kts 263°
2026-04-16 20:11 -54.84217 -68.30797 108 ft 7 kts 262°
2026-04-16 20:11 -54.84227 -68.30929 108 ft 12 kts 252°
2026-04-16 20:12 -54.84296 -68.30966 109 ft 11 kts 175°
2026-04-16 20:12 -54.84365 -68.30936 110 ft 10 kts 140°
2026-04-16 20:12 -54.84379 -68.30799 108 ft 15 kts 86°
2026-04-16 20:12 -54.84369 -68.30589 106 ft 20 kts 86°
2026-04-16 20:13 -54.84361 -68.30334 105 ft 22 kts 87°
2026-04-16 20:13 -54.84347 -68.30069 104 ft 22 kts 87°
2026-04-16 20:13 -54.84339 -68.29775 106 ft 25 kts 84°
2026-04-16 20:13 -54.84327 -68.29490 107 ft 23 kts 86°
2026-04-16 20:14 -54.84317 -68.29216 105 ft 22 kts 85°
2026-04-16 20:14 -54.84307 -68.28950 103 ft 22 kts 87°
2026-04-16 20:14 -54.84297 -68.28689 99 ft 22 kts 86°
2026-04-16 20:14 -54.84287 -68.28429 99 ft 21 kts 85°
2026-04-16 20:15 -54.84276 -68.28177 98 ft 21 kts 86°
2026-04-16 20:15 -54.84266 -68.27911 100 ft 24 kts 85°
2026-04-16 20:15 -54.84251 -68.27607 100 ft 20 kts 83°
2026-04-16 20:15 -54.84237 -68.27543 100 ft 13 kts 56°
2026-04-16 20:16 -54.84231 -68.27411 98 ft 11 kts 149°
2026-04-16 20:16 -54.84256 -68.27502 100 ft 11 kts 276°
2026-04-16 20:16 -54.84258 -68.27647 100 ft 21 kts 268°
2026-04-16 20:16 -54.84293 -68.28495 99 ft 119 kts 266°
2026-04-16 20:17 -54.84358 -68.30257 509 ft 163 kts 265°
2026-04-16 20:17 -54.84420 -68.32386 1417 ft 184 kts 268°
2026-04-16 20:17 -54.84700 -68.34649 2542 ft 202 kts 248°
2026-04-16 20:17 -54.85448 -68.36794 3671 ft 215 kts 230°
2026-04-16 20:18 -54.86631 -68.38620 4474 ft 244 kts 216°
2026-04-16 20:18 -54.88236 -68.39950 4808 ft 272 kts 194°
2026-04-16 20:18 -54.90158 -68.39618 5527 ft 288 kts 156°
2026-04-16 20:18 -54.91638 -68.37403 6777 ft 280 kts 120°
2026-04-16 20:19 -54.92173 -68.34275 7920 ft 265 kts 82°
2026-04-16 20:19 -54.91940 -68.32268 8653 ft 249 kts 61°
2026-04-16 20:19 -54.91432 -68.29434 9763 ft 244 kts 67°
2026-04-16 20:19 -54.91051 -68.26607 10727 ft 237 kts 64°
2026-04-16 20:20 -54.90632 -68.23836 11462 ft 238 kts 63°
2026-04-16 20:20 -54.90188 -68.21018 12113 ft 244 kts 62°
2026-04-16 20:20 -54.89731 -68.18140 12776 ft 250 kts 62°
2026-04-16 20:20 -54.89266 -68.15200 13448 ft 253 kts 61°
2026-04-16 20:21 -54.88799 -68.12248 14111 ft 254 kts 60°
2026-04-16 20:21 -54.88335 -68.09325 14751 ft 255 kts 59°
2026-04-16 20:21 -54.87860 -68.06345 15393 ft 257 kts 58°
2026-04-16 20:21 -54.87654 -68.03121 15978 ft 289 kts 86°
2026-04-16 20:22 -54.88142 -67.99532 16250 ft 319 kts 95°
2026-04-16 20:22 -54.88758 -67.95681 16456 ft 342 kts 95°
2026-04-16 20:22 -54.89399 -67.91550 16683 ft 364 kts 95°
2026-04-16 20:22 -54.90007 -67.87230 17196 ft 368 kts 86°
2026-04-16 20:23 -54.89818 -67.83016 17837 ft 335 kts 56°
2026-04-16 20:23 -54.88804 -67.79609 18613 ft 304 kts 37°
2026-04-16 20:23 -54.87387 -67.77102 19374 ft 282 kts 22°
2026-04-16 20:23 -54.85755 -67.75366 19997 ft 270 kts 12°
2026-04-16 20:24 -54.84020 -67.74162 20556 ft 266 kts
2026-04-16 20:24 -54.82232 -67.73724 21220 ft 254 kts 351°
2026-04-16 20:24 -54.80488 -67.73951 21976 ft 252 kts 348°
2026-04-16 20:24 -54.78752 -67.74250 22626 ft 256 kts 348°
2026-04-16 20:25 -54.76974 -67.74574 23298 ft 258 kts 348°
2026-04-16 20:25 -54.75186 -67.74899 23974 ft 258 kts 348°
2026-04-16 20:25 -54.73404 -67.75222 24638 ft 258 kts 348°
2026-04-16 20:25 -54.71612 -67.75545 25247 ft 260 kts 348°
2026-04-16 20:26 -54.69806 -67.75873 25894 ft 261 kts 348°
2026-04-16 20:26 -54.67990 -67.76202 26514 ft 264 kts 348°
2026-04-16 20:26 -54.66161 -67.76530 27009 ft 264 kts 348°
2026-04-16 20:26 -54.64323 -67.76859 27653 ft 267 kts 348°
2026-04-16 20:27 -54.62472 -67.77182 28287 ft 268 kts 348°
2026-04-16 20:27 -54.60612 -67.77517 28909 ft 269 kts 348°
2026-04-16 20:27 -54.58741 -67.77855 29485 ft 271 kts 348°
2026-04-16 20:27 -54.56855 -67.78194 29914 ft 274 kts 348°
2026-04-16 20:28 -54.54968 -67.78532 30303 ft 277 kts 348°
2026-04-16 20:28 -54.53037 -67.78876 30702 ft 281 kts 348°
2026-04-16 20:28 -54.51062 -67.79029 31046 ft 288 kts 353°
2026-04-16 20:28 -54.49040 -67.78933 31381 ft 293 kts 354°
2026-04-16 20:29 -54.46990 -67.78804 31763 ft 296 kts 354°
2026-04-16 20:29 -54.44928 -67.78667 32147 ft 298 kts 354°
2026-04-16 20:29 -54.42842 -67.78530 32510 ft 301 kts 354°
2026-04-16 20:29 -54.40742 -67.78395 32859 ft 303 kts 354°
2026-04-16 20:30 -54.38976 -67.78283 33136 ft 305 kts 354°
2026-04-16 20:30 -54.37227 -67.78174 33397 ft 307 kts 354°
2026-04-16 20:30 -54.35117 -67.78044 33637 ft 310 kts 354°
2026-04-16 20:30 -54.32987 -67.77913 33909 ft 311 kts 354°
2026-04-16 20:31 -54.30783 -67.77780 34092 ft 316 kts 354°
2026-04-16 20:31 -54.28566 -67.77647 34268 ft 320 kts 354°
2026-04-16 20:31 -54.26332 -67.77513 34500 ft 322 kts 354°
2026-04-16 20:31 -54.24082 -67.77376 34721 ft 325 kts 354°
2026-04-16 20:32 -54.21807 -67.77239 34905 ft 328 kts 354°
2026-04-16 20:32 -54.19514 -67.77102 35082 ft 331 kts 354°
2026-04-16 20:32 -54.17201 -67.76963 35288 ft 333 kts 354°
2026-04-16 20:32 -54.14872 -67.76824 35212 ft 334 kts 355°
2026-04-16 20:33 -54.12596 -67.76682 35279 ft 320 kts 355°
2026-04-16 20:33 -54.10399 -67.76541 35304 ft 317 kts 355°
2026-04-16 20:33 -54.05932 -67.76284 35370 ft 330 kts 355°
2026-04-16 20:34 -54.01255 -67.76014 35391 ft 343 kts 355°
2026-04-16 20:34 -53.96384 -67.75726 35394 ft 356 kts 355°
2026-04-16 20:35 -53.91352 -67.75425 35397 ft 367 kts 356°
2026-04-16 20:35 -53.86171 -67.75115 35395 ft 377 kts 356°
2026-04-16 20:36 -53.80953 -67.74893 35381 ft 373 kts 351°
2026-04-16 20:36 -53.75979 -67.76330 35383 ft 367 kts 342°
2026-04-16 20:37 -53.71843 -67.78879 35391 ft 365 kts 335°
2026-04-16 20:37 -53.67415 -67.82304 35388 ft 365 kts 334°
2026-04-16 20:38 -53.62797 -67.85891 35384 ft 365 kts 334°
2026-04-16 20:38 -53.58208 -67.89426 35385 ft 365 kts 334°
2026-04-16 20:39 -53.53585 -67.92968 35384 ft 365 kts 334°
2026-04-16 20:39 -53.48959 -67.96498 35386 ft 364 kts 334°
2026-04-16 20:40 -53.44340 -68.00013 35385 ft 364 kts 334°
2026-04-16 20:40 -53.39746 -68.03500 35386 ft 364 kts 334°
2026-04-16 20:41 -53.35120 -68.07003 35385 ft 364 kts 334°
2026-04-16 20:41 -53.30504 -68.10491 35388 ft 364 kts 334°
2026-04-16 20:42 -53.25887 -68.13971 35388 ft 364 kts 334°
2026-04-16 20:42 -53.21300 -68.17420 35394 ft 364 kts 334°
2026-04-16 20:43 -53.16684 -68.20883 35391 ft 364 kts 334°
2026-04-16 20:43 -53.12059 -68.24344 35395 ft 363 kts 334°
2026-04-16 20:44 -53.07442 -68.27792 35392 ft 363 kts 334°
2026-04-16 20:44 -53.02854 -68.31210 35393 ft 363 kts 334°
2026-04-16 20:45 -52.98242 -68.34637 35397 ft 363 kts 334°
2026-04-16 20:45 -52.93630 -68.38057 35399 ft 363 kts 334°
2026-04-16 20:46 -52.89014 -68.41473 35396 ft 363 kts 334°
2026-04-16 20:46 -52.84407 -68.44874 35397 ft 362 kts 334°
2026-04-16 20:47 -52.79824 -68.48248 35392 ft 362 kts 334°
2026-04-16 20:47 -52.75208 -68.51640 35396 ft 362 kts 334°
2026-04-16 20:48 -52.70605 -68.55018 35390 ft 362 kts 334°
2026-04-16 20:48 -52.66025 -68.58370 35399 ft 362 kts 334°
2026-04-16 20:49 -52.61428 -68.61729 35395 ft 362 kts 334°
2026-04-16 20:49 -52.56827 -68.65083 35402 ft 361 kts 334°
2026-04-16 20:50 -52.52220 -68.68434 35396 ft 361 kts 334°
2026-04-16 20:50 -52.47615 -68.71775 35400 ft 362 kts 334°
2026-04-16 20:51 -52.43006 -68.75112 35400 ft 362 kts 334°
2026-04-16 20:51 -52.38416 -68.78428 35403 ft 363 kts 334°
2026-04-16 20:52 -52.33798 -68.81756 35403 ft 363 kts 334°
2026-04-16 20:52 -52.29164 -68.85087 35400 ft 363 kts 334°
2026-04-16 20:53 -52.24532 -68.88410 35403 ft 364 kts 334°
2026-04-16 20:53 -52.19917 -68.91714 35403 ft 364 kts 334°
2026-04-16 20:54 -52.15268 -68.95033 35402 ft 365 kts 334°
2026-04-16 20:54 -52.10611 -68.98351 35399 ft 365 kts 334°
2026-04-16 20:55 -52.05956 -69.01660 35401 ft 364 kts 335°
2026-04-16 20:55 -52.01316 -69.04951 35401 ft 363 kts 335°
2026-04-16 20:56 -51.96686 -69.08227 35397 ft 363 kts 335°
2026-04-16 20:56 -51.92089 -69.11473 35399 ft 362 kts 335°
2026-04-16 20:57 -51.87463 -69.14732 35397 ft 362 kts 335°
2026-04-16 20:57 -51.82855 -69.17971 35395 ft 361 kts 335°
2026-04-16 20:58 -51.78247 -69.21203 35393 ft 361 kts 335°
2026-04-16 20:58 -51.73633 -69.24433 35391 ft 361 kts 335°
2026-04-16 20:59 -51.69021 -69.27655 35386 ft 361 kts 335°
2026-04-16 20:59 -51.64484 -69.31015 35381 ft 360 kts 328°
2026-04-16 21:00 -51.60479 -69.35846 35385 ft 361 kts 321°
2026-04-16 21:00 -51.57062 -69.41809 35411 ft 365 kts 312°
2026-04-16 21:01 -51.54007 -69.48338 35399 ft 366 kts 311°
2026-04-16 21:01 -51.50971 -69.54848 35405 ft 366 kts 311°
2026-04-16 21:02 -51.47898 -69.61390 35411 ft 367 kts 311°
2026-04-16 21:03 -51.43272 -69.71181 35402 ft 367 kts 311°
2026-04-16 21:03 -51.40205 -69.77646 35406 ft 367 kts 311°
2026-04-16 21:04 -51.37114 -69.84143 35402 ft 367 kts 311°
2026-04-16 21:04 -51.34114 -69.90451 35386 ft 340 kts 312°
2026-04-16 21:04 -51.32711 -69.93400 35364 ft 325 kts 312°
2026-04-16 21:05 -51.31351 -69.96247 35118 ft 315 kts 312°
2026-04-16 21:05 -51.28724 -70.01722 35137 ft 315 kts 313°
2026-04-16 21:06 -51.26001 -70.07368 35144 ft 331 kts 312°
2026-04-16 21:06 -51.24567 -70.10339 34940 ft 345 kts 313°
2026-04-16 21:06 -51.23079 -70.13421 34527 ft 358 kts 313°
2026-04-16 21:06 -51.21625 -70.16441 34053 ft 353 kts 313°
2026-04-16 21:07 -51.20132 -70.19546 33476 ft 351 kts 313°
2026-04-16 21:07 -51.18653 -70.22619 32840 ft 347 kts 314°
2026-04-16 21:07 -51.17190 -70.25650 32274 ft 343 kts 314°
2026-04-16 21:07 -51.15743 -70.28644 31707 ft 339 kts 314°
2026-04-16 21:08 -51.14310 -70.31601 31167 ft 335 kts 314°
2026-04-16 21:08 -51.13372 -70.33536 30824 ft 332 kts 315°
2026-04-16 21:08 -51.11962 -70.36438 30275 ft 329 kts 315°
2026-04-16 21:08 -51.10570 -70.39301 29780 ft 326 kts 315°
2026-04-16 21:09 -51.08738 -70.43064 29009 ft 322 kts 315°
2026-04-16 21:09 -51.07816 -70.44957 28653 ft 319 kts 315°
2026-04-16 21:09 -51.06465 -70.47727 28114 ft 314 kts 315°
2026-04-16 21:09 -51.05120 -70.50433 27597 ft 309 kts 317°
2026-04-16 21:10 -51.03731 -70.52940 27085 ft 304 kts 318°
2026-04-16 21:10 -51.02309 -70.55402 26585 ft 300 kts 318°
2026-04-16 21:10 -51.00900 -70.57827 26094 ft 297 kts 318°
2026-04-16 21:10 -50.99510 -70.60229 25610 ft 294 kts 318°
2026-04-16 21:11 -50.98135 -70.62613 25118 ft 292 kts 317°
2026-04-16 21:11 -50.96769 -70.64988 24651 ft 290 kts 317°
2026-04-16 21:11 -50.95411 -70.67350 24161 ft 289 kts 317°
2026-04-16 21:11 -50.94064 -70.69697 23700 ft 287 kts 317°
2026-04-16 21:12 -50.92723 -70.72032 23233 ft 286 kts 317°
2026-04-16 21:12 -50.91385 -70.74359 22713 ft 285 kts 317°
2026-04-16 21:12 -50.90052 -70.76674 22237 ft 283 kts 316°
2026-04-16 21:12 -50.88722 -70.78979 21464 ft 288 kts 316°
2026-04-16 21:13 -50.87369 -70.81318 20925 ft 287 kts 316°
2026-04-16 21:13 -50.86024 -70.83641 20433 ft 285 kts 316°
2026-04-16 21:13 -50.84688 -70.85948 19978 ft 282 kts 316°
2026-04-16 21:13 -50.83381 -70.88203 19535 ft 280 kts 316°
2026-04-16 21:14 -50.82069 -70.90464 19115 ft 278 kts 316°
2026-04-16 21:14 -50.80763 -70.92714 18688 ft 277 kts 316°
2026-04-16 21:14 -50.79463 -70.94949 18228 ft 276 kts 316°
2026-04-16 21:14 -50.78165 -70.97181 17770 ft 275 kts 316°
2026-04-16 21:15 -50.76873 -70.99400 17293 ft 273 kts 316°
2026-04-16 21:15 -50.75589 -71.01605 16853 ft 271 kts 316°
2026-04-16 21:15 -50.74322 -71.03778 16411 ft 268 kts 316°
2026-04-16 21:15 -50.73079 -71.05908 15978 ft 266 kts 315°
2026-04-16 21:16 -50.71834 -71.08041 15562 ft 263 kts 315°
2026-04-16 21:16 -50.70597 -71.10156 15136 ft 261 kts 315°
2026-04-16 21:16 -50.69365 -71.12261 14700 ft 260 kts 315°
2026-04-16 21:16 -50.68142 -71.14350 14269 ft 259 kts 315°
2026-04-16 21:17 -50.66921 -71.16433 13836 ft 258 kts 315°
2026-04-16 21:17 -50.65705 -71.18507 13409 ft 258 kts 315°
2026-04-16 21:17 -50.64485 -71.20585 12949 ft 258 kts 314°
2026-04-16 21:17 -50.63267 -71.22658 12513 ft 257 kts 314°
2026-04-16 21:18 -50.62052 -71.24724 12057 ft 256 kts 314°
2026-04-16 21:18 -50.60839 -71.26788 11604 ft 257 kts 314°
2026-04-16 21:18 -50.59619 -71.28859 11159 ft 257 kts 314°
2026-04-16 21:18 -50.58400 -71.30930 10713 ft 258 kts 314°
2026-04-16 21:19 -50.57178 -71.33002 10272 ft 259 kts 314°
2026-04-16 21:19 -50.55965 -71.35055 9830 ft 260 kts 313°
2026-04-16 21:19 -50.54749 -71.37114 9642 ft 252 kts 314°
2026-04-16 21:19 -50.53559 -71.39124 9186 ft 254 kts 313°
2026-04-16 21:20 -50.52379 -71.41117 9054 ft 244 kts 313°
2026-04-16 21:20 -50.51226 -71.43063 8753 ft 241 kts 313°
2026-04-16 21:20 -50.50090 -71.44980 8483 ft 239 kts 313°
2026-04-16 21:20 -50.48956 -71.46891 8220 ft 239 kts 313°
2026-04-16 21:21 -50.47831 -71.48787 7938 ft 236 kts 313°
2026-04-16 21:21 -50.46725 -71.50649 7610 ft 236 kts 313°
2026-04-16 21:21 -50.45595 -71.52552 7279 ft 235 kts 313°
2026-04-16 21:21 -50.44496 -71.54402 6963 ft 235 kts 313°
2026-04-16 21:22 -50.43384 -71.56268 6756 ft 230 kts 313°
2026-04-16 21:22 -50.42311 -71.58067 6643 ft 222 kts 313°
2026-04-16 21:22 -50.41276 -71.59802 6530 ft 214 kts 313°
2026-04-16 21:22 -50.40265 -71.61499 6244 ft 213 kts 314°
2026-04-16 21:23 -50.39252 -71.63197 5993 ft 212 kts 314°
2026-04-16 21:23 -50.38243 -71.64884 5727 ft 212 kts 314°
2026-04-16 21:23 -50.37231 -71.66575 5474 ft 212 kts 313°
2026-04-16 21:23 -50.36240 -71.68240 5386 ft 206 kts 313°
2026-04-16 21:24 -50.35233 -71.69802 5227 ft 200 kts 325°
2026-04-16 21:24 -50.34016 -71.70751 5143 ft 191 kts 335°
2026-04-16 21:24 -50.32847 -71.71584 5048 ft 182 kts 334°
2026-04-16 21:24 -50.31718 -71.72406 4978 ft 179 kts 334°
2026-04-16 21:25 -50.30571 -71.73244 4784 ft 183 kts 334°
2026-04-16 21:25 -50.29434 -71.74072 4621 ft 181 kts 334°
2026-04-16 21:25 -50.28286 -71.74908 4371 ft 181 kts 334°
2026-04-16 21:25 -50.27151 -71.75740 4142 ft 177 kts 331°
2026-04-16 21:26 -50.26336 -71.77067 3851 ft 170 kts 284°
2026-04-16 21:26 -50.26390 -71.78860 3730 ft 169 kts 267°
2026-04-16 21:26 -50.26515 -71.80673 3467 ft 165 kts 268°
2026-04-16 21:26 -50.26657 -71.82434 3330 ft 164 kts 266°
2026-04-16 21:27 -50.26785 -71.84227 3120 ft 164 kts 267°
2026-04-16 21:27 -50.26890 -71.85930 2891 ft 149 kts 267°
2026-04-16 21:27 -50.26979 -71.87429 2689 ft 131 kts 268°
2026-04-16 21:27 -50.27056 -71.88779 2556 ft 123 kts 267°
2026-04-16 21:28 -50.27134 -71.90133 2388 ft 126 kts 268°
2026-04-16 21:28 -50.27213 -71.91506 2226 ft 129 kts 267°
2026-04-16 21:28 -50.27297 -71.92933 2031 ft 134 kts 268°
2026-04-16 21:28 -50.27380 -71.94372 1845 ft 132 kts 268°
2026-04-16 21:29 -50.27462 -71.95781 1667 ft 130 kts 267°
2026-04-16 21:29 -50.27528 -71.97202 1598 ft 129 kts 267°
2026-04-16 21:29 -50.27582 -71.98606 1361 ft 130 kts 264°
2026-04-16 21:29 -50.27674 -72.00001 1209 ft 128 kts 260°
2026-04-16 21:30 -50.27790 -72.01390 1027 ft 131 kts 260°
2026-04-16 21:30 -50.27868 -72.02820 788 ft 132 kts 260°
2026-04-16 21:30 -50.27943 -72.04177 644 ft 118 kts 262°
2026-04-16 21:30 -50.28021 -72.05231 648 ft 76 kts 263°
2026-04-16 21:31 -50.28057 -72.05828 650 ft 48 kts 265°
2026-04-16 21:31 -50.28118 -72.06223 652 ft 29 kts 237°
2026-04-16 21:31 -50.28220 -72.06400 654 ft 19 kts 197°
2026-04-16 21:31 -50.28312 -72.06292 653 ft 19 kts 90°
2026-04-16 21:32 -50.28303 -72.06093 652 ft 18 kts 83°
2026-04-16 21:32 -50.28288 -72.05901 651 ft 17 kts 85°
2026-04-16 21:32 -50.28276 -72.05715 650 ft 17 kts 83°
2026-04-16 21:32 -50.28281 -72.05541 650 ft 15 kts 122°
2026-04-16 21:33 -50.28321 -72.05493 649 ft 2 kts 150°
2026-04-16 21:33 -50.28346 -72.05473 649 ft 5 kts 153°
2026-04-16 21:33 -50.28349 -72.05470 649 ft 0 kts 153°
2026-04-16 21:34 -50.32071 -71.72149 4994 ft 178 kts 334°
2026-04-16 21:34 -50.30937 -71.72976 4887 ft 183 kts 334°
2026-04-16 21:34 -50.29825 -71.73787 4705 ft 179 kts 334°
2026-04-16 21:34 -50.28654 -71.74640 4452 ft 182 kts 334°
2026-04-16 21:35 -50.27512 -71.75471 4216 ft 180 kts 334°
2026-04-16 21:35 -50.26507 -71.76533 3951 ft 172 kts 303°
2026-04-16 21:35 -50.26338 -71.78291 3794 ft 168 kts 265°
2026-04-16 21:35 -50.26477 -71.80098 3544 ft 167 kts 268°
2026-04-16 21:36 -50.26611 -71.81889 3370 ft 162 kts 266°
2026-04-16 21:36 -50.26745 -71.83630 3188 ft 166 kts 267°
2026-04-16 21:36 -50.26858 -71.85399 2960 ft 155 kts 267°
2026-04-16 21:36 -50.26952 -71.86973 2782 ft 135 kts 268°
2026-04-16 21:37 -50.27031 -71.88343 2589 ft 122 kts 267°
2026-04-16 21:37 -50.27108 -71.89691 2431 ft 126 kts 266°